| time (UTC) | temp F | wind direction | speed knots | gust knots | rain 1hr in | rain 24hr in | rain mn in | humidity % | barometer mb |
| 20260510094157 | 51 | 255 | 0.0 | 3.5 | 0.00 | 0.47 | 0.00 | 92 | 1013.8 |
| 20260510093157 | 51 | 250 | 0.0 | 0.0 | 0.00 | 0.47 | 0.00 | 92 | 1013.7 |
| 20260510092158 | 51 | 256 | 0.0 | 0.0 | 0.00 | 0.47 | 0.00 | 92 | 1013.7 |
| 20260510091157 | 51 | 256 | 0.0 | 0.0 | 0.00 | 0.47 | 0.00 | 92 | 1013.6 |
| 20260510090157 | 51 | 253 | 0.0 | 0.0 | 0.00 | 0.47 | 0.00 | 92 | 1013.9 |
| 20260510084157 | 51 | 253 | 0.0 | 0.0 | 0.00 | 0.47 | 0.00 | 92 | 1014.1 |
| 20260510083157 | 51 | 256 | 0.0 | 0.0 | 0.00 | 0.47 | 0.00 | 92 | 1014.0 |
| 20260510082157 | 51 | 256 | 0.0 | 0.0 | 0.00 | 0.47 | 0.00 | 93 | 1014.1 |
| 20260510081158 | 51 | 255 | 0.0 | 0.0 | 0.00 | 0.47 | 0.00 | 93 | 1013.9 |
| 20260510080158 | 51 | 256 | 0.0 | 2.6 | 0.00 | 0.47 | 0.00 | 93 | 1014.0 |
| 20260510074157 | 51 | 256 | 0.0 | 0.0 | 0.00 | 0.47 | 0.00 | 93 | 1013.7 |
| 20260510073157 | 51 | 257 | 0.0 | 0.0 | 0.00 | 0.47 | 0.00 | 93 | 1013.7 |
| 20260510071157 | 51 | 255 | 0.0 | 0.0 | 0.00 | 0.47 | 0.00 | 92 | 1013.6 |
| 20260510070158 | 51 | 256 | 0.0 | 0.0 | 0.00 | 0.47 | 0.00 | 92 | 1013.6 |
| 20260510065157 | 51 | 256 | 0.0 | 0.0 | 0.00 | 0.47 | 0.00 | 92 | 1013.7 |
| 20260510064158 | 51 | 255 | 0.0 | 0.0 | 0.00 | 0.47 | 0.00 | 92 | 1013.7 |
| 20260510063157 | 51 | 254 | 0.0 | 0.0 | 0.00 | 0.47 | 0.00 | 92 | 1013.7 |
| 20260510061157 | 51 | 254 | 0.0 | 3.5 | 0.00 | 0.47 | 0.00 | 92 | 1013.8 |
| 20260510060157 | 51 | 276 | 0.0 | 0.0 | 0.00 | 0.47 | 0.00 | 92 | 1013.7 |
| 20260510055157 | 51 | 283 | 0.0 | 0.0 | 0.00 | 0.47 | 0.00 | 93 | 1013.7 |
| 20260510054157 | 51 | 295 | 0.0 | 0.0 | 0.00 | 0.47 | 0.00 | 93 | 1013.7 |
| 20260510053157 | 51 | 299 | 0.0 | 1.7 | 0.00 | 0.47 | 0.00 | 93 | 1013.7 |
| 20260510052158 | 51 | 305 | 0.0 | 0.0 | 0.00 | 0.47 | 0.00 | 93 | 1013.6 |
| 20260510051158 | 51 | 304 | 0.0 | 0.0 | 0.00 | 0.47 | 0.00 | 93 | 1013.8 |
| 20260510044157 | 51 | 307 | 0.0 | 0.0 | 0.00 | 0.47 | 0.00 | 93 | 1014.0 |
| 20260510043157 | 51 | 359 | 0.0 | 0.0 | 0.00 | 0.47 | 0.00 | 93 | 1013.9 |
| 20260510042157 | 51 | 308 | 0.0 | 0.0 | 0.00 | 0.47 | 0.00 | 93 | 1014.0 |
| 20260510041157 | 50 | 309 | 0.0 | 0.0 | 0.00 | 0.47 | 0.00 | 92 | 1014.0 |
| 20260510040157 | 51 | 309 | 0.0 | 0.0 | 0.00 | 0.47 | 0.00 | 92 | 1014.1 |
| 20260510035157 | 51 | 308 | 0.0 | 0.0 | 0.00 | 0.47 | 0.47 | 92 | 1014.0 |
| 20260510034157 | 50 | 309 | 0.0 | 0.0 | 0.00 | 0.47 | 0.47 | 92 | 1013.9 |
| 20260510033157 | 50 | 308 | 0.0 | 0.0 | 0.00 | 0.47 | 0.47 | 92 | 1013.8 |
| 20260510031157 | 51 | 307 | 0.0 | 0.0 | 0.00 | 0.47 | 0.47 | 92 | 1013.8 |
| 20260510030157 | 51 | 308 | 0.0 | 0.0 | 0.00 | 0.47 | 0.47 | 92 | 1014.0 |
| 20260510025157 | 51 | 308 | 0.0 | 0.0 | 0.00 | 0.47 | 0.47 | 92 | 1013.9 |
| 20260510024157 | 51 | 310 | 0.0 | 0.0 | 0.00 | 0.47 | 0.47 | 92 | 1014.0 |
| 20260510023157 | 51 | 310 | 0.0 | 0.0 | 0.00 | 0.47 | 0.47 | 92 | 1014.1 |
| 20260510022157 | 51 | 307 | 0.0 | 0.0 | 0.00 | 0.47 | 0.47 | 92 | 1014.2 |
| 20260510021157 | 51 | 307 | 0.0 | 0.0 | 0.00 | 0.47 | 0.47 | 92 | 1014.5 |
| 20260510020157 | 51 | 310 | 0.0 | 0.0 | 0.00 | 0.47 | 0.47 | 92 | 1014.4 |
| 20260510015157 | 51 | 310 | 0.0 | 0.0 | 0.00 | 0.47 | 0.47 | 92 | 1014.3 |
| 20260510014157 | 51 | 311 | 0.0 | 0.0 | 0.00 | 0.47 | 0.47 | 92 | 1014.3 |
| 20260510012157 | 50 | 310 | 0.0 | 0.0 | 0.00 | 0.47 | 0.47 | 92 | 1014.2 |
| 20260510011157 | 50 | 310 | 0.0 | 0.0 | 0.00 | 0.47 | 0.47 | 92 | 1014.0 |
| 20260510010157 | 51 | 309 | 0.0 | 0.0 | 0.01 | 0.47 | 0.47 | 92 | 1014.0 |
| 20260510005157 | 51 | 310 | 0.0 | 0.0 | 0.01 | 0.47 | 0.47 | 92 | 1013.8 |
| 20260510002157 | 51 | 306 | 0.0 | 0.0 | 0.01 | 0.47 | 0.47 | 92 | 1013.8 |
| 20260510001157 | 51 | 309 | 0.0 | 0.0 | 0.01 | 0.47 | 0.47 | 92 | 1013.8 |
| 20260509235157 | 51 | 308 | 0.0 | 0.0 | 0.00 | 0.46 | 0.46 | 92 | 1013.9 |
| 20260509234157 | 51 | 308 | 0.0 | 0.0 | 0.00 | 0.46 | 0.46 | 92 | 1013.8 |
| 20260509233157 | 51 | 310 | 0.0 | 0.0 | 0.00 | 0.46 | 0.46 | 92 | 1013.8 |
| 20260509232157 | 51 | 308 | 0.0 | 0.0 | 0.00 | 0.46 | 0.46 | 91 | 1013.7 |
| 20260509225157 | 51 | 310 | 0.0 | 0.0 | 0.00 | 0.46 | 0.46 | 92 | 1013.4 |
| 20260509224157 | 51 | 359 | 0.0 | 0.0 | 0.01 | 0.46 | 0.46 | 92 | 1013.4 |
| 20260509223157 | 51 | 311 | 0.0 | 0.0 | 0.03 | 0.46 | 0.46 | 92 | 1013.5 |
| 20260509222157 | 51 | 305 | 0.0 | 0.0 | 0.04 | 0.46 | 0.46 | 92 | 1013.5 |
| 20260509221157 | 51 | 359 | 0.0 | 0.0 | 0.06 | 0.46 | 0.46 | 92 | 1013.4 |
| 20260509220157 | 51 | 310 | 0.0 | 0.0 | 0.06 | 0.46 | 0.46 | 92 | 1013.4 |
| 20260509215157 | 51 | 310 | 0.0 | 0.0 | 0.08 | 0.46 | 0.46 | 91 | 1013.5 |
| 20260509214157 | 51 | 308 | 0.0 | 0.0 | 0.08 | 0.45 | 0.45 | 91 | 1013.5 |
| 20260509213157 | 51 | 312 | 0.0 | 0.0 | 0.08 | 0.43 | 0.43 | 91 | 1013.7 |
| 20260509212158 | 50 | 309 | 0.0 | 0.0 | 0.09 | 0.42 | 0.42 | 91 | 1013.8 |
| 20260509211157 | 50 | 359 | 0.0 | 0.0 | 0.08 | 0.40 | 0.40 | 91 | 1013.9 |
| 20260509210157 | 50 | 307 | 0.0 | 0.0 | 0.09 | 0.40 | 0.40 | 91 | 1013.9 |
| 20260509204157 | 50 | 313 | 0.0 | 0.0 | 0.08 | 0.37 | 0.37 | 90 | 1014.3 |
| 20260509203157 | 50 | 310 | 0.0 | 0.0 | 0.07 | 0.35 | 0.35 | 90 | 1014.4 |
| 20260509202157 | 50 | 309 | 0.0 | 0.0 | 0.06 | 0.33 | 0.33 | 90 | 1014.4 |
| 20260509201157 | 50 | 308 | 0.0 | 0.0 | 0.05 | 0.32 | 0.32 | 90 | 1014.4 |
| 20260509200157 | 50 | 311 | 0.0 | 0.0 | 0.05 | 0.31 | 0.31 | 90 | 1014.3 |
| 20260509195157 | 50 | 313 | 0.0 | 0.0 | 0.04 | 0.30 | 0.30 | 90 | 1014.4 |
| 20260509194157 | 51 | 308 | 0.0 | 0.0 | 0.03 | 0.29 | 0.29 | 90 | 1014.3 |
| 20260509192157 | 50 | 308 | 0.0 | 0.0 | 0.02 | 0.27 | 0.27 | 91 | 1014.3 |
| 20260509191157 | 50 | 308 | 0.0 | 0.0 | 0.02 | 0.27 | 0.27 | 91 | 1014.2 |
| 20260509190157 | 50 | 312 | 0.0 | 0.0 | 0.01 | 0.26 | 0.26 | 91 | 1014.2 |
| 20260509185157 | 50 | 308 | 0.0 | 0.0 | 0.02 | 0.26 | 0.26 | 91 | 1014.1 |
| 20260509184157 | 50 | 310 | 0.0 | 0.0 | 0.03 | 0.26 | 0.26 | 91 | 1014.5 |
| 20260509183157 | 50 | 310 | 0.0 | 0.0 | 0.03 | 0.25 | 0.25 | 92 | 1014.7 |
| 20260509182157 | 49 | 308 | 0.0 | 0.0 | 0.04 | 0.25 | 0.25 | 92 | 1014.6 |
| 20260509180157 | 48 | 359 | 0.0 | 0.0 | 0.05 | 0.25 | 0.25 | 92 | 1014.8 |
| 20260509174157 | 48 | 311 | 0.0 | 0.0 | 0.05 | 0.23 | 0.23 | 91 | 1015.2 |
| 20260509173157 | 48 | 310 | 0.0 | 0.0 | 0.04 | 0.22 | 0.22 | 91 | 1015.4 |
| 20260509172157 | 48 | 310 | 0.0 | 0.0 | 0.04 | 0.21 | 0.21 | 91 | 1015.6 |